Aérodrome :
LOGIN :

S'inscrire | Disclaimer

   EN    FR    IT 

 










Légende :    VFR   VFR Marginal   IFR   IFR Intensif   IFR Très Intensif
Visi : 
Plafond : 
>= 8 km
>= 3000ft
5 à 8 km
1000 à 3000 ft
1500m à 5 km
500 à 1000 ft
800 à 1500m
200 à 500 ft
< 800m
< 200 ft
Symboles :   Orages  Brouillard  Fortes neiges  Fortes précipitations  Vent > 20 kt
SIGMETs :   Divers  Orages  Givrage  Turbulence  Onde Orograph.  Cendres Volcan.







- Altitude de l'aérodrome : 1161 ft
- Code IATA : RJL


LELO - Logroño-Agoncillo

DERNIER METAR :
  • 190930Z 12003KT 090V160 9999 FEW055 04/03 Q1021

METARs EXPIRÉS :
  • 190900Z 00000KT 9999 FEW055 03/02 Q1021
  • 190830Z 07003KT 010V110 9999 FEW060 01/01 Q1020
  • 190800Z VRB02KT 9999 SCT055 01/00 Q1020
  • 190730Z 00000KT 5000 BR NSC M00/M01 Q1020
  • 190700Z 00000KT 6000 NSC 01/00 Q1020

TAF TAF LELO
Valide du 19 à 09h jusqu'au 19 à 18h UTC


190800Z 1909/1918 VRB03KT 9999 SCT045
BECMG 1912/1914 28012KT
Pas de NOTAMs connus pour ce terrain.



MET'MAP, la Météo Aéronautique d'un coup d'oeil ! - Copyright ORBIFLY Décembre 2007 - Disclaimer

ORBIFLY MET'MAP TEAM :

Programmation & Développement : Alexandra Zaïnal
Conception & Développement : Baudouin d'Aumeries
Co-Programmation & Développement : Marc-Olivier Méhu
Soutien technique & logistique : Manuel Goepfert

Contact : metmap@orbifly.com




SOURCES & CREDITS :

   NOAA